Year,Month,Day,Hour,Minute,Value (Times are PST for temperature in C)
2016,04,26,00,00,5.20
2016,04,26,00,01,5.20
2016,04,26,00,02,5.20
2016,04,26,00,03,5.20
2016,04,26,00,04,5.20
2016,04,26,00,05,5.10
2016,04,26,00,06,5.10
2016,04,26,00,07,5.10
2016,04,26,00,08,5.00
2016,04,26,00,09,5.00
2016,04,26,00,10,4.90
2016,04,26,00,11,4.90
2016,04,26,00,12,4.90
2016,04,26,00,13,4.90
2016,04,26,00,14,4.80
2016,04,26,00,15,4.80
2016,04,26,00,16,4.80
2016,04,26,00,17,4.80
2016,04,26,00,18,4.80
2016,04,26,00,19,4.80
2016,04,26,00,20,4.80
2016,04,26,00,21,4.80
2016,04,26,00,22,4.70
2016,04,26,00,23,4.70
2016,04,26,00,24,4.70
2016,04,26,00,25,4.70
2016,04,26,00,26,4.60
2016,04,26,00,27,4.60
2016,04,26,00,28,4.60
2016,04,26,00,29,4.60
2016,04,26,00,30,4.60
2016,04,26,00,31,4.60
2016,04,26,00,32,4.60
2016,04,26,00,33,4.50
2016,04,26,00,34,4.50
2016,04,26,00,35,4.50
2016,04,26,00,36,4.50
2016,04,26,00,37,4.40
2016,04,26,00,38,4.40
2016,04,26,00,39,4.40
2016,04,26,00,40,4.40
2016,04,26,00,41,4.40
2016,04,26,00,42,4.40
2016,04,26,00,43,4.40
2016,04,26,00,44,4.40
2016,04,26,00,45,4.40
2016,04,26,00,46,4.50
2016,04,26,00,47,4.50
2016,04,26,00,48,4.40
2016,04,26,00,49,4.40
2016,04,26,00,50,4.40
2016,04,26,00,51,4.40
2016,04,26,00,52,4.40
2016,04,26,00,53,4.40
2016,04,26,00,54,4.40
2016,04,26,00,55,4.50
2016,04,26,00,56,4.50
2016,04,26,00,57,4.50
2016,04,26,00,58,4.50
2016,04,26,00,59,4.50
2016,04,26,01,00,4.50
2016,04,26,01,01,4.50
2016,04,26,01,02,4.40
2016,04,26,01,03,4.40
2016,04,26,01,04,4.40
2016,04,26,01,05,4.40
2016,04,26,01,06,4.40
2016,04,26,01,07,4.40
2016,04,26,01,08,4.40
2016,04,26,01,09,4.40
2016,04,26,01,10,4.40
2016,04,26,01,11,4.40
2016,04,26,01,12,4.40
2016,04,26,01,13,4.40
2016,04,26,01,14,4.40
2016,04,26,01,15,4.40
2016,04,26,01,16,4.40
2016,04,26,01,17,4.40
2016,04,26,01,18,4.40
2016,04,26,01,19,4.40
2016,04,26,01,20,4.40
2016,04,26,01,21,4.40
2016,04,26,01,22,4.40
2016,04,26,01,23,4.40
2016,04,26,01,24,4.40
2016,04,26,01,25,4.40
2016,04,26,01,26,4.40
2016,04,26,01,27,4.40
2016,04,26,01,28,4.30
2016,04,26,01,29,4.30
2016,04,26,01,30,4.30
2016,04,26,01,31,4.30
2016,04,26,01,32,4.30
2016,04,26,01,33,4.30
2016,04,26,01,34,4.30
2016,04,26,01,35,4.30
2016,04,26,01,36,4.30
2016,04,26,01,37,4.30
2016,04,26,01,38,4.30
2016,04,26,01,39,4.30
2016,04,26,01,40,4.30
2016,04,26,01,41,4.30
2016,04,26,01,42,4.30
2016,04,26,01,43,4.30
2016,04,26,01,44,4.30
2016,04,26,01,45,4.30
2016,04,26,01,46,4.30
2016,04,26,01,47,4.30
2016,04,26,01,48,4.30
2016,04,26,01,49,4.30
2016,04,26,01,50,4.30
2016,04,26,01,51,4.20
2016,04,26,01,52,4.20
2016,04,26,01,53,4.20
2016,04,26,01,54,4.20
2016,04,26,01,55,4.20
2016,04,26,01,56,4.10
2016,04,26,01,57,4.10
2016,04,26,01,58,4.10
2016,04,26,01,59,4.10
2016,04,26,02,00,4.00
2016,04,26,02,01,4.00
2016,04,26,02,02,4.00
2016,04,26,02,03,4.00
2016,04,26,02,04,4.00
2016,04,26,02,05,4.00
2016,04,26,02,06,4.00
2016,04,26,02,07,4.00
2016,04,26,02,08,4.00
2016,04,26,02,09,4.10
2016,04,26,02,10,4.10
2016,04,26,02,11,4.10
2016,04,26,02,12,4.00
2016,04,26,02,13,4.00
2016,04,26,02,14,3.90
2016,04,26,02,15,3.90
2016,04,26,02,16,3.90
2016,04,26,02,17,3.90
2016,04,26,02,18,3.90
2016,04,26,02,19,3.90
2016,04,26,02,20,3.90
2016,04,26,02,21,3.90
2016,04,26,02,22,3.90
2016,04,26,02,23,3.90
2016,04,26,02,24,3.90
2016,04,26,02,25,3.90
2016,04,26,02,26,3.90
2016,04,26,02,27,3.90
2016,04,26,02,28,3.80
2016,04,26,02,29,3.80
2016,04,26,02,30,3.80
2016,04,26,02,31,3.80
2016,04,26,02,32,3.80
2016,04,26,02,33,3.80
2016,04,26,02,34,3.80
2016,04,26,02,35,3.80
2016,04,26,02,36,3.80
2016,04,26,02,37,3.80
2016,04,26,02,38,3.80
2016,04,26,02,39,3.80
2016,04,26,02,40,3.80
2016,04,26,02,41,3.80
2016,04,26,02,42,3.80
2016,04,26,02,43,3.80
2016,04,26,02,44,3.80
2016,04,26,02,45,3.70
2016,04,26,02,46,3.70
2016,04,26,02,47,3.70
2016,04,26,02,48,3.70
2016,04,26,02,49,3.70
2016,04,26,02,50,3.70
2016,04,26,02,51,3.70
2016,04,26,02,52,3.60
2016,04,26,02,53,3.60
2016,04,26,02,54,3.60
2016,04,26,02,55,3.60
2016,04,26,02,56,3.50
2016,04,26,02,57,3.50
2016,04,26,02,58,3.50
2016,04,26,02,59,3.50
2016,04,26,03,00,3.50
2016,04,26,03,01,3.50
2016,04,26,03,02,3.50
2016,04,26,03,06,3.50
2016,04,26,03,07,3.50
2016,04,26,03,08,3.50
2016,04,26,03,09,3.50
2016,04,26,03,10,3.40
2016,04,26,03,11,3.40
2016,04,26,03,12,3.40
2016,04,26,03,13,3.40
2016,04,26,03,14,3.40
2016,04,26,03,15,3.40
2016,04,26,03,16,3.40
2016,04,26,03,17,3.40
2016,04,26,03,18,3.40
2016,04,26,03,19,3.40
2016,04,26,03,20,3.40
2016,04,26,03,21,3.40
2016,04,26,03,22,3.40
2016,04,26,03,23,3.40
2016,04,26,03,24,3.40
2016,04,26,03,25,3.40
2016,04,26,03,26,3.40
2016,04,26,03,27,3.50
2016,04,26,03,28,3.40
2016,04,26,03,29,3.40
2016,04,26,03,30,3.40
2016,04,26,03,31,3.40
2016,04,26,03,32,3.40
2016,04,26,03,33,3.40
2016,04,26,03,34,3.40
2016,04,26,03,35,3.40
2016,04,26,03,36,3.40
2016,04,26,03,37,3.40
2016,04,26,03,38,3.40
2016,04,26,03,39,3.40
2016,04,26,03,40,3.30
2016,04,26,03,41,3.30
2016,04,26,03,42,3.30
2016,04,26,03,43,3.30
2016,04,26,03,44,3.30
2016,04,26,03,45,3.30
2016,04,26,03,46,3.30
2016,04,26,03,47,3.30
2016,04,26,03,48,3.30
2016,04,26,03,49,3.30
2016,04,26,03,50,3.20
2016,04,26,03,51,3.20
2016,04,26,03,52,3.20
2016,04,26,03,53,3.20
2016,04,26,03,54,3.20
2016,04,26,03,55,3.20
2016,04,26,03,56,3.20
2016,04,26,03,57,3.20
2016,04,26,03,58,3.20
2016,04,26,03,59,3.20
2016,04,26,04,00,3.10
2016,04,26,04,01,3.10
2016,04,26,04,02,3.10
2016,04,26,04,03,3.10
2016,04,26,04,04,3.10
2016,04,26,04,05,3.10
2016,04,26,04,06,3.10
2016,04,26,04,07,3.20
2016,04,26,04,08,3.20
2016,04,26,04,09,3.20
2016,04,26,04,10,3.20
2016,04,26,04,11,3.20
2016,04,26,04,12,3.20
2016,04,26,04,13,3.20
2016,04,26,04,14,3.20
2016,04,26,04,15,3.20
2016,04,26,04,16,3.10
2016,04,26,04,17,3.10
2016,04,26,04,18,3.10
2016,04,26,04,19,3.00
2016,04,26,04,20,3.00
2016,04,26,04,21,3.00
2016,04,26,04,22,2.90
2016,04,26,04,23,2.90
2016,04,26,04,24,2.90
2016,04,26,04,25,2.90
2016,04,26,04,26,2.90
2016,04,26,04,27,2.90
2016,04,26,04,28,2.90
2016,04,26,04,29,2.90
2016,04,26,04,30,2.90
2016,04,26,04,31,2.90
2016,04,26,04,32,2.90
2016,04,26,04,33,2.90
2016,04,26,04,34,2.90
2016,04,26,04,35,2.90
2016,04,26,04,36,2.80
2016,04,26,04,37,2.80
2016,04,26,04,38,2.80
2016,04,26,04,39,2.80
2016,04,26,04,40,2.80
2016,04,26,04,41,2.80
2016,04,26,04,42,2.70
2016,04,26,04,43,2.70
2016,04,26,04,44,2.70
2016,04,26,04,45,2.70
2016,04,26,04,46,2.70
2016,04,26,04,47,2.70
2016,04,26,04,48,2.70
2016,04,26,04,49,2.70
2016,04,26,04,50,2.70
2016,04,26,04,51,2.70
2016,04,26,04,52,2.70
2016,04,26,04,53,2.70
2016,04,26,04,54,2.70
2016,04,26,04,55,2.70
2016,04,26,04,56,2.70
2016,04,26,04,57,2.70
2016,04,26,04,58,2.70
2016,04,26,04,59,2.70
2016,04,26,05,00,2.70
2016,04,26,05,01,2.60
2016,04,26,05,02,2.60
2016,04,26,05,03,2.60
2016,04,26,05,04,2.60
2016,04,26,05,05,2.60
2016,04,26,05,06,2.60
2016,04,26,05,07,2.60
2016,04,26,05,08,2.70
2016,04,26,05,09,2.70
2016,04,26,05,10,2.70
2016,04,26,05,11,2.80
2016,04,26,05,12,2.80
2016,04,26,05,13,2.80
2016,04,26,05,14,2.80
2016,04,26,05,15,2.80
2016,04,26,05,16,2.70
2016,04,26,05,17,2.70
2016,04,26,05,18,2.70
2016,04,26,05,19,2.80
2016,04,26,05,20,2.80
2016,04,26,05,21,2.80
2016,04,26,05,22,2.80
2016,04,26,05,23,2.80
2016,04,26,05,24,2.80
2016,04,26,05,25,2.70
2016,04,26,05,26,2.70
2016,04,26,05,27,2.70
2016,04,26,05,28,2.60
2016,04,26,05,29,2.60
2016,04,26,05,30,2.60
2016,04,26,05,31,2.60
2016,04,26,05,32,2.60
2016,04,26,05,33,2.60
2016,04,26,05,34,2.60
2016,04,26,05,35,2.60
2016,04,26,05,36,2.60
2016,04,26,05,37,2.70
2016,04,26,05,38,2.70
2016,04,26,05,39,2.70
2016,04,26,05,40,2.70
2016,04,26,05,41,2.60
2016,04,26,05,42,2.60
2016,04,26,05,43,2.60
2016,04,26,05,44,2.60
2016,04,26,05,45,2.50
2016,04,26,05,46,2.50
2016,04,26,05,47,2.50
2016,04,26,05,48,2.50
2016,04,26,05,49,2.40
2016,04,26,05,50,2.40
2016,04,26,05,51,2.40
2016,04,26,05,52,2.40
2016,04,26,05,53,2.40
2016,04,26,05,54,2.40
2016,04,26,05,55,2.40
2016,04,26,05,56,2.40
2016,04,26,05,57,2.40
2016,04,26,05,58,2.40
2016,04,26,05,59,2.40
2016,04,26,06,00,2.50
2016,04,26,06,01,2.50
2016,04,26,06,02,2.60
2016,04,26,06,03,2.60
2016,04,26,06,04,2.60
2016,04,26,06,05,2.60
2016,04,26,06,06,2.60
2016,04,26,06,07,2.60
2016,04,26,06,08,2.60
2016,04,26,06,09,2.60
2016,04,26,06,10,2.60
2016,04,26,06,11,2.50
2016,04,26,06,12,2.50
2016,04,26,06,13,2.40
2016,04,26,06,14,2.40
2016,04,26,06,15,2.30
2016,04,26,06,16,2.30
2016,04,26,06,17,2.30
2016,04,26,06,18,2.30
2016,04,26,06,19,2.30
2016,04,26,06,20,2.20
2016,04,26,06,21,2.20
2016,04,26,06,22,2.30
2016,04,26,06,23,2.30
2016,04,26,06,24,2.30
2016,04,26,06,25,2.30
2016,04,26,06,26,2.20
2016,04,26,06,27,2.20
2016,04,26,06,28,2.20
2016,04,26,06,29,2.20
2016,04,26,06,30,2.20
2016,04,26,06,31,2.20
2016,04,26,06,32,2.20
2016,04,26,06,33,2.20
2016,04,26,06,34,2.20
2016,04,26,06,35,2.20
2016,04,26,06,36,2.20
2016,04,26,06,37,2.20
2016,04,26,06,38,2.20
2016,04,26,06,39,2.20
2016,04,26,06,40,2.30
2016,04,26,06,41,2.30
2016,04,26,06,42,2.30
2016,04,26,06,43,2.30
2016,04,26,06,44,2.30
2016,04,26,06,45,2.30
2016,04,26,06,46,2.30
2016,04,26,06,47,2.40
2016,04,26,06,48,2.40
2016,04,26,06,49,2.40
2016,04,26,06,50,2.50
2016,04,26,06,51,2.50
2016,04,26,06,52,2.60
2016,04,26,06,53,2.70
2016,04,26,06,54,2.70
2016,04,26,06,55,2.80
2016,04,26,06,56,2.80
2016,04,26,06,57,2.80
2016,04,26,06,58,2.80
2016,04,26,06,59,2.90
2016,04,26,07,00,2.90
2016,04,26,07,01,3.00
2016,04,26,07,02,3.00
2016,04,26,07,03,3.00
2016,04,26,07,04,3.10
2016,04,26,07,05,3.10
2016,04,26,07,06,3.20
2016,04,26,07,07,3.20
2016,04,26,07,08,3.30
2016,04,26,07,09,3.30
2016,04,26,07,10,3.30
2016,04,26,07,11,3.40
2016,04,26,07,12,3.40
2016,04,26,07,13,3.50
2016,04,26,07,14,3.60
2016,04,26,07,15,3.60
2016,04,26,07,16,3.70
2016,04,26,07,17,3.70
2016,04,26,07,18,3.70
2016,04,26,07,19,3.80
2016,04,26,07,20,3.80
2016,04,26,07,21,3.80
2016,04,26,07,22,3.90
2016,04,26,07,23,3.90
2016,04,26,07,24,4.00
2016,04,26,07,25,4.00
2016,04,26,07,26,4.00
2016,04,26,07,27,4.10
2016,04,26,07,28,4.10
2016,04,26,07,29,4.10
2016,04,26,07,30,4.20
2016,04,26,07,31,4.20
2016,04,26,07,32,4.30
2016,04,26,07,33,4.30
2016,04,26,07,34,4.40
2016,04,26,07,35,4.40
2016,04,26,07,36,4.50
2016,04,26,07,37,4.50
2016,04,26,07,38,4.50
2016,04,26,07,39,4.60
2016,04,26,07,40,4.70
2016,04,26,07,41,4.70
2016,04,26,07,42,4.70
2016,04,26,07,43,4.70
2016,04,26,07,44,4.70
2016,04,26,07,45,4.70
2016,04,26,07,46,4.70
2016,04,26,07,47,4.80
2016,04,26,07,48,4.80
2016,04,26,07,49,4.80
2016,04,26,07,50,4.90
2016,04,26,07,51,5.00
2016,04,26,07,52,5.10
2016,04,26,07,53,5.10
2016,04,26,07,54,5.20
2016,04,26,07,55,5.30
2016,04,26,07,56,5.40
2016,04,26,07,57,5.40
2016,04,26,07,58,5.50
2016,04,26,07,59,5.50
2016,04,26,08,00,5.60
2016,04,26,08,01,5.70
2016,04,26,08,02,5.70
2016,04,26,08,03,5.80
2016,04,26,08,04,5.80
2016,04,26,08,05,6.00
2016,04,26,08,06,6.20
2016,04,26,08,07,6.30
2016,04,26,08,08,6.50
2016,04,26,08,09,6.60
2016,04,26,08,10,6.80
2016,04,26,08,11,7.00
2016,04,26,08,12,7.20
2016,04,26,08,13,7.40
2016,04,26,08,14,7.50
2016,04,26,08,15,7.70
2016,04,26,08,16,7.80
2016,04,26,08,17,8.00
2016,04,26,08,18,8.10
2016,04,26,08,19,8.30
2016,04,26,08,20,8.40
2016,04,26,08,21,8.50
2016,04,26,08,22,8.60
2016,04,26,08,23,8.70
2016,04,26,08,24,8.90
2016,04,26,08,25,9.00
2016,04,26,08,26,9.10
2016,04,26,08,27,9.20
2016,04,26,08,28,9.30
2016,04,26,08,29,9.30
2016,04,26,08,30,9.40
2016,04,26,08,31,9.40
2016,04,26,08,32,9.40
2016,04,26,08,33,9.50
2016,04,26,08,34,9.50
2016,04,26,08,35,9.60
2016,04,26,08,36,9.60
2016,04,26,08,37,9.70
2016,04,26,08,38,9.70
2016,04,26,08,39,9.70
2016,04,26,08,40,9.70
2016,04,26,08,41,9.80
2016,04,26,08,42,9.90
2016,04,26,08,43,10.00
2016,04,26,08,44,10.10
2016,04,26,08,45,10.10
2016,04,26,08,46,10.10
2016,04,26,08,47,10.10
2016,04,26,08,48,10.20
2016,04,26,08,49,10.20
2016,04,26,08,50,10.20
2016,04,26,08,51,10.20
2016,04,26,08,52,10.20
2016,04,26,08,53,10.30
2016,04,26,08,54,10.30
2016,04,26,08,55,10.40
2016,04,26,08,56,10.40
2016,04,26,08,57,10.50
2016,04,26,08,58,10.40
2016,04,26,08,59,10.40
2016,04,26,09,00,10.40
2016,04,26,09,01,10.30
2016,04,26,09,02,10.30
2016,04,26,09,03,10.30
2016,04,26,09,04,10.30
2016,04,26,09,05,10.30
2016,04,26,09,06,10.30
2016,04,26,09,07,10.40
2016,04,26,09,08,10.40
2016,04,26,09,09,10.50
2016,04,26,09,10,10.60
2016,04,26,09,11,10.60
2016,04,26,09,12,10.60
2016,04,26,09,13,10.60
2016,04,26,09,14,10.60
2016,04,26,09,15,10.60
2016,04,26,09,16,10.70
2016,04,26,09,17,10.80
2016,04,26,09,18,10.70
2016,04,26,09,19,10.80
2016,04,26,09,20,10.80
2016,04,26,09,21,10.80
2016,04,26,09,22,10.80
2016,04,26,09,23,10.80
2016,04,26,09,24,10.80
2016,04,26,09,25,10.90
2016,04,26,09,26,10.90
2016,04,26,09,27,10.90
2016,04,26,09,28,11.00
2016,04,26,09,29,11.10
2016,04,26,09,30,11.20
2016,04,26,09,31,11.20
2016,04,26,09,32,11.20
2016,04,26,09,33,11.20
2016,04,26,09,34,11.20
2016,04,26,09,35,11.20
2016,04,26,09,36,11.20
2016,04,26,09,37,11.20
2016,04,26,09,38,11.20
2016,04,26,09,39,11.20
2016,04,26,09,40,11.30
2016,04,26,09,41,11.30
2016,04,26,09,42,11.40
2016,04,26,09,43,11.30
2016,04,26,09,44,11.30
2016,04,26,09,45,11.30
2016,04,26,09,46,11.30
2016,04,26,09,47,11.40
2016,04,26,09,48,11.40
2016,04,26,09,49,11.40
2016,04,26,09,50,11.40
2016,04,26,09,51,11.40
2016,04,26,09,52,11.40
2016,04,26,09,53,11.40
2016,04,26,09,54,11.30
2016,04,26,09,55,11.30
2016,04,26,09,56,11.30
2016,04,26,09,57,11.40
2016,04,26,09,58,11.50
2016,04,26,09,59,11.50
2016,04,26,10,00,11.50
2016,04,26,10,01,11.40
2016,04,26,10,02,11.50
2016,04,26,10,03,11.50
2016,04,26,10,04,11.60
2016,04,26,10,05,11.60
2016,04,26,10,06,11.60
2016,04,26,10,07,11.70
2016,04,26,10,08,11.80
2016,04,26,10,09,12.00
2016,04,26,10,10,12.10
2016,04,26,10,11,12.10
2016,04,26,10,12,12.20
2016,04,26,10,13,12.20
2016,04,26,10,14,12.20
2016,04,26,10,15,12.10
2016,04,26,10,16,12.00
2016,04,26,10,17,12.00
2016,04,26,10,18,12.10
2016,04,26,10,19,12.10
2016,04,26,10,20,12.00
2016,04,26,10,21,11.90
2016,04,26,10,22,11.80
2016,04,26,10,23,11.90
2016,04,26,10,24,11.90
2016,04,26,10,25,11.90
2016,04,26,10,26,11.90
2016,04,26,10,27,11.90
2016,04,26,10,28,11.90
2016,04,26,10,29,11.90
2016,04,26,10,30,12.00
2016,04,26,10,31,12.00
2016,04,26,10,32,12.00
2016,04,26,10,33,12.00
2016,04,26,10,34,12.00
2016,04,26,10,35,11.90
2016,04,26,10,36,11.90
2016,04,26,10,37,11.90
2016,04,26,10,38,11.90
2016,04,26,10,39,11.90
2016,04,26,10,40,11.80
2016,04,26,10,41,11.90
2016,04,26,10,42,11.90
2016,04,26,10,43,11.90
2016,04,26,10,44,11.90
2016,04,26,10,45,12.10
2016,04,26,10,46,12.20
2016,04,26,10,47,12.40
2016,04,26,10,48,12.40
2016,04,26,10,49,12.50
2016,04,26,10,50,12.60
2016,04,26,10,51,12.60
2016,04,26,10,52,12.60
2016,04,26,10,53,12.60
2016,04,26,10,54,12.60
2016,04,26,10,55,12.50
2016,04,26,10,56,12.30
2016,04,26,10,57,12.20
2016,04,26,10,58,12.10
2016,04,26,10,59,12.00
2016,04,26,11,00,11.90
2016,04,26,11,01,11.90
2016,04,26,11,02,11.90
2016,04,26,11,03,11.90
2016,04,26,11,04,11.90
2016,04,26,11,05,12.00
2016,04,26,11,06,12.10
2016,04,26,11,07,12.10
2016,04,26,11,08,12.00
2016,04,26,11,09,12.10
2016,04,26,11,10,12.10
2016,04,26,11,11,12.20
2016,04,26,11,12,12.40
2016,04,26,11,13,12.50
2016,04,26,11,14,12.50
2016,04,26,11,15,12.60
2016,04,26,11,16,12.50
2016,04,26,11,17,12.40
2016,04,26,11,18,12.20
2016,04,26,11,19,12.20
2016,04,26,11,20,12.10
2016,04,26,11,21,12.00
2016,04,26,11,22,11.90
2016,04,26,11,23,11.90
2016,04,26,11,24,12.00
2016,04,26,11,25,12.10
2016,04,26,11,26,12.10
2016,04,26,11,27,12.10
2016,04,26,11,28,12.00
2016,04,26,11,29,12.00
2016,04,26,11,30,12.10
2016,04,26,11,31,12.10
2016,04,26,11,32,12.20
2016,04,26,11,33,12.40
2016,04,26,11,34,12.50
2016,04,26,11,35,12.70
2016,04,26,11,36,12.80
2016,04,26,11,37,12.80
2016,04,26,11,38,12.80
2016,04,26,11,39,12.80
2016,04,26,11,40,12.80
2016,04,26,11,41,12.90
2016,04,26,11,42,12.80
2016,04,26,11,43,12.80
2016,04,26,11,44,12.90
2016,04,26,11,45,12.90
2016,04,26,11,46,12.90
2016,04,26,11,47,12.90
2016,04,26,11,48,12.80
2016,04,26,11,49,12.80
2016,04,26,11,50,12.80
2016,04,26,11,51,12.80
2016,04,26,11,52,12.80
2016,04,26,11,53,12.90
2016,04,26,11,54,13.00
2016,04,26,11,55,13.00
2016,04,26,11,56,12.90
2016,04,26,11,57,12.80
2016,04,26,11,58,12.90
2016,04,26,11,59,12.80
2016,04,26,12,00,12.80
2016,04,26,12,01,12.70
2016,04,26,12,02,12.70
2016,04,26,12,03,12.80
2016,04,26,12,04,12.90
2016,04,26,12,05,13.00
2016,04,26,12,06,13.10
2016,04,26,12,07,13.00
2016,04,26,12,08,13.00
2016,04,26,12,09,13.00
2016,04,26,12,10,13.10
2016,04,26,12,11,13.00
2016,04,26,12,12,12.90
2016,04,26,12,13,12.80
2016,04,26,12,14,12.80
2016,04,26,12,15,12.80
2016,04,26,12,16,12.70
2016,04,26,12,17,12.60
2016,04,26,12,18,12.50
2016,04,26,12,19,12.50
2016,04,26,12,20,12.50
2016,04,26,12,21,12.60
2016,04,26,12,22,12.80
2016,04,26,12,23,12.90
2016,04,26,12,24,13.00
2016,04,26,12,25,13.00
2016,04,26,12,26,12.90
2016,04,26,12,27,12.80
2016,04,26,12,28,12.70
2016,04,26,12,29,12.70
2016,04,26,12,30,12.80
2016,04,26,12,31,12.80
2016,04,26,12,32,12.80
2016,04,26,12,33,12.70
2016,04,26,12,34,12.70
2016,04,26,12,35,12.80
2016,04,26,12,36,12.80
2016,04,26,12,37,12.80
2016,04,26,12,38,12.90
2016,04,26,12,39,12.90
2016,04,26,12,40,13.00
2016,04,26,12,41,13.20
2016,04,26,12,42,13.10
2016,04,26,12,43,13.10
2016,04,26,12,44,13.10
2016,04,26,12,45,13.20
2016,04,26,12,46,13.40
2016,04,26,12,47,13.50
2016,04,26,12,48,13.70
2016,04,26,12,49,13.80
2016,04,26,12,50,13.90
2016,04,26,12,51,13.90
2016,04,26,12,52,13.80
2016,04,26,12,53,13.80
2016,04,26,12,54,13.80
2016,04,26,12,55,13.80
2016,04,26,12,56,13.80
2016,04,26,12,57,13.90
2016,04,26,12,58,13.80
2016,04,26,12,59,13.80
2016,04,26,13,00,13.80
2016,04,26,13,01,13.90
2016,04,26,13,02,14.10
2016,04,26,13,03,14.10
2016,04,26,13,04,14.00
2016,04,26,13,05,14.00
2016,04,26,13,06,14.10
2016,04,26,13,07,14.20
2016,04,26,13,08,14.50
2016,04,26,13,09,14.40
2016,04,26,13,10,14.30
2016,04,26,13,11,14.40
2016,04,26,13,12,14.40
2016,04,26,13,13,14.30
2016,04,26,13,14,14.00
2016,04,26,13,15,13.80
2016,04,26,13,16,13.70
2016,04,26,13,17,13.60
2016,04,26,13,18,13.50
2016,04,26,13,19,13.60
2016,04,26,13,20,13.60
2016,04,26,13,21,13.60
2016,04,26,13,22,13.60
2016,04,26,13,23,13.60
2016,04,26,13,24,13.60
2016,04,26,13,25,13.60
2016,04,26,13,26,13.80
2016,04,26,13,27,13.80
2016,04,26,13,28,13.90
2016,04,26,13,29,14.00
2016,04,26,13,30,14.10
2016,04,26,13,31,14.10
2016,04,26,13,32,14.10
2016,04,26,13,33,14.10
2016,04,26,13,34,14.00
2016,04,26,13,35,13.90
2016,04,26,13,36,13.90
2016,04,26,13,37,14.00
2016,04,26,13,38,14.10
2016,04,26,13,39,14.10
2016,04,26,13,40,14.20
2016,04,26,13,41,14.10
2016,04,26,13,42,14.10
2016,04,26,13,43,14.20
2016,04,26,13,44,14.00
2016,04,26,13,45,13.90
2016,04,26,13,46,14.00
2016,04,26,13,47,14.10
2016,04,26,13,48,14.20
2016,04,26,13,49,14.30
2016,04,26,13,50,14.30
2016,04,26,13,51,14.40
2016,04,26,13,52,14.50
2016,04,26,13,53,14.50
2016,04,26,13,54,14.60
2016,04,26,13,55,14.50
2016,04,26,13,56,14.50
2016,04,26,13,57,14.50
2016,04,26,13,58,14.40
2016,04,26,13,59,14.40
2016,04,26,14,00,14.40
2016,04,26,14,01,14.30
2016,04,26,14,02,14.30
2016,04,26,14,03,14.20
2016,04,26,14,04,14.30
2016,04,26,14,05,14.30
2016,04,26,14,06,14.30
2016,04,26,14,07,14.20
2016,04,26,14,08,14.20
2016,04,26,14,09,14.20
2016,04,26,14,10,14.30
2016,04,26,14,11,14.30
2016,04,26,14,12,14.30
2016,04,26,14,13,14.30
2016,04,26,14,14,14.30
2016,04,26,14,15,14.30
2016,04,26,14,16,14.30
2016,04,26,14,17,14.20
2016,04,26,14,18,14.30
2016,04,26,14,19,14.30
2016,04,26,14,20,14.40
2016,04,26,14,21,14.40
2016,04,26,14,22,14.40
2016,04,26,14,23,14.40
2016,04,26,14,24,14.40
2016,04,26,14,25,14.40
2016,04,26,14,26,14.30
2016,04,26,14,27,14.40
2016,04,26,14,28,14.40
2016,04,26,14,29,14.40
2016,04,26,14,30,14.40
2016,04,26,14,31,14.40
2016,04,26,14,32,14.40
2016,04,26,14,33,14.40
2016,04,26,14,34,14.40
2016,04,26,14,35,14.40
2016,04,26,14,36,14.50
2016,04,26,14,37,14.60
2016,04,26,14,38,14.70
2016,04,26,14,39,14.80
2016,04,26,14,40,14.70
2016,04,26,14,41,14.60
2016,04,26,14,42,14.60
2016,04,26,14,43,14.70
2016,04,26,14,44,14.70
2016,04,26,14,45,14.70
2016,04,26,14,46,14.60
2016,04,26,14,47,14.60
2016,04,26,14,48,14.60
2016,04,26,14,49,14.70
2016,04,26,14,50,14.70
2016,04,26,14,51,14.70
2016,04,26,14,52,14.70
2016,04,26,14,53,14.70
2016,04,26,14,54,14.70
2016,04,26,14,55,14.70
2016,04,26,14,56,14.70
2016,04,26,14,57,14.70
2016,04,26,14,58,14.70
2016,04,26,14,59,14.70
2016,04,26,15,00,14.60
2016,04,26,15,01,14.60
2016,04,26,15,02,14.60
2016,04,26,15,03,14.60
2016,04,26,15,04,14.60
2016,04,26,15,05,14.70
2016,04,26,15,06,14.70
2016,04,26,15,07,14.70
2016,04,26,15,08,14.80
2016,04,26,15,09,14.80
2016,04,26,15,10,14.80
2016,04,26,15,11,14.80
2016,04,26,15,12,14.70
2016,04,26,15,13,14.70
2016,04,26,15,14,14.60
2016,04,26,15,15,14.60
2016,04,26,15,16,14.50
2016,04,26,15,17,14.50
2016,04,26,15,18,14.50
2016,04,26,15,19,14.50
2016,04,26,15,20,14.50
2016,04,26,15,21,14.50
2016,04,26,15,22,14.50
2016,04,26,15,23,14.40
2016,04,26,15,24,14.40
2016,04,26,15,25,14.40
2016,04,26,15,26,14.50
2016,04,26,15,27,14.40
2016,04,26,15,28,14.40
2016,04,26,15,29,14.40
2016,04,26,15,30,14.40
2016,04,26,15,31,14.50
2016,04,26,15,32,14.60
2016,04,26,15,33,14.60
2016,04,26,15,34,14.70
2016,04,26,15,35,14.70
2016,04,26,15,36,14.70
2016,04,26,15,37,14.70
2016,04,26,15,38,14.70
2016,04,26,15,39,14.60
2016,04,26,15,40,14.60
2016,04,26,15,41,14.60
2016,04,26,15,42,14.60
2016,04,26,15,43,14.60
2016,04,26,15,44,14.70
2016,04,26,15,45,14.70
2016,04,26,15,46,14.70
2016,04,26,15,47,14.70
2016,04,26,15,48,14.70
2016,04,26,15,49,14.70
2016,04,26,15,50,14.60
2016,04,26,15,51,14.60
2016,04,26,15,52,14.60
2016,04,26,15,53,14.60
2016,04,26,15,54,14.60
2016,04,26,15,55,14.70
2016,04,26,15,56,14.70
2016,04,26,15,57,14.70
2016,04,26,15,58,14.70
2016,04,26,15,59,14.70
2016,04,26,16,00,14.70
2016,04,26,16,01,14.70
2016,04,26,16,02,14.60
2016,04,26,16,03,14.60
2016,04,26,16,04,14.60
2016,04,26,16,05,14.50
2016,04,26,16,06,14.50
2016,04,26,16,07,14.40
2016,04,26,16,08,14.30
2016,04,26,16,09,14.20
2016,04,26,16,10,14.20
2016,04,26,16,11,14.20
2016,04,26,16,12,14.20
2016,04,26,16,13,14.20
2016,04,26,16,14,14.20
2016,04,26,16,15,14.20
2016,04,26,16,16,14.20
2016,04,26,16,17,14.20
2016,04,26,16,18,14.20
2016,04,26,16,19,14.20
2016,04,26,16,20,14.20
2016,04,26,16,21,14.20
2016,04,26,16,22,14.20
2016,04,26,16,23,14.20
2016,04,26,16,24,14.20
2016,04,26,16,25,14.20
2016,04,26,16,26,14.20
2016,04,26,16,27,14.20
2016,04,26,16,28,14.10
2016,04,26,16,29,14.10
2016,04,26,16,30,14.10
2016,04,26,16,31,14.10
2016,04,26,16,32,14.20
2016,04,26,16,33,14.10
2016,04,26,16,34,14.10
2016,04,26,16,35,14.10
2016,04,26,16,36,14.00
2016,04,26,16,37,14.00
2016,04,26,16,38,14.00
2016,04,26,16,39,14.00
2016,04,26,16,40,14.00
2016,04,26,16,41,14.00
2016,04,26,16,42,14.10
2016,04,26,16,43,14.10
2016,04,26,16,44,14.20
2016,04,26,16,45,14.20
2016,04,26,16,46,14.10
2016,04,26,16,47,14.10
2016,04,26,16,48,14.10
2016,04,26,16,49,14.10
2016,04,26,16,50,14.00
2016,04,26,16,51,14.00
2016,04,26,16,52,14.00
2016,04,26,16,53,14.00
2016,04,26,16,54,14.10
2016,04,26,16,55,14.10
2016,04,26,16,56,14.10
2016,04,26,16,57,14.20
2016,04,26,16,58,14.20
2016,04,26,16,59,14.20
2016,04,26,17,00,14.20
2016,04,26,17,01,14.30
2016,04,26,17,02,14.30
2016,04,26,17,03,14.30
2016,04,26,17,04,14.20
2016,04,26,17,05,14.10
2016,04,26,17,06,14.10
2016,04,26,17,07,14.00
2016,04,26,17,08,14.00
2016,04,26,17,09,14.00
2016,04,26,17,10,13.90
2016,04,26,17,11,13.90
2016,04,26,17,12,13.90
2016,04,26,17,13,13.90
2016,04,26,17,14,13.90
2016,04,26,17,15,14.00
2016,04,26,17,16,14.00
2016,04,26,17,17,14.00
2016,04,26,17,18,14.10
2016,04,26,17,19,14.10
2016,04,26,17,20,14.10
2016,04,26,17,21,14.10
2016,04,26,17,22,14.10
2016,04,26,17,23,14.10
2016,04,26,17,24,14.10
2016,04,26,17,25,14.10
2016,04,26,17,26,14.20
2016,04,26,17,27,14.10
2016,04,26,17,28,14.10
2016,04,26,17,29,14.10
2016,04,26,17,30,14.10
2016,04,26,17,31,14.10
2016,04,26,17,32,14.10
2016,04,26,17,33,14.10
2016,04,26,17,34,14.10
2016,04,26,17,35,14.10
2016,04,26,17,36,14.10
2016,04,26,17,37,14.00
2016,04,26,17,38,14.00
2016,04,26,17,39,13.90
2016,04,26,17,40,13.90
2016,04,26,17,41,13.80
2016,04,26,17,42,13.80
2016,04,26,17,43,13.80
2016,04,26,17,44,13.80
2016,04,26,17,45,13.80